Douglas, WY

4:43 PM MDT on March 27, 2017 (GMT -0600)
Converse County

Weather History for KDGW - August, 2013

Change the Weather History Date:

Monday, August 5, 2013

  Actual Average Record
Temperature  
Mean Temperature 77 °F 72 °F  
Max Temperature 93 °F 89 °F 97 °F (2001)
Min Temperature 60 °F 55 °F 50 °F (2005)
Degree Days  
Heating Degree Days 0 0  
Month to date heating degree days 0 0  
Since 1 June heating degree days 56 125  
Since 1 July heating degree days 0 15  
Cooling Degree Days 12 7  
Month to date cooling degree days 42 36  
Year to date cooling degree days 442 318  
Since 1 June cooling degree days 426 312  
Growing Degree Days 28 (Base 50)    
Moisture  
Dew Point 48 °F    
Average Humidity 47    
Maximum Humidity 84    
Minimum Humidity 10    
Precipitation  
Precipitation 0.00 in 0.04 in 1.05 in (2002)
Month to date precipitation 0.07 0.18  
Year to date precipitation 5.86 9.09  
Sea Level Pressure  
Sea Level Pressure 29.87 in    
Wind  
Wind Speed 8 mph (SSW)    
Max Wind Speed 24 mph    
Max Gust Speed 30 mph    
Visibility 10 miles    
Events      
T = Trace of Precipitation, MM = Missing Value Source: NWS Daily Summary

Daily Weather History Graph

Daily Weather History Graph

Search for Another Location

Airport or City:

Trip Planner

Search our weather history database for the weather conditions in past years. The results will help you decide how hot, cold, wet, or windy it might be!

Date:

Astronomy

Aug. 05, 2013 Rise Set
Actual Time 5:57 AM MDT 8:16 PM MDT
Civil Twilight 5:25 AM MDT 8:48 PM MDT
Nautical Twilight 4:46 AM MDT 9:27 PM MDT
Astronomical Twilight 4:03 AM MDT 10:10 PM MDT
Moon 4:55 AM MDT (8/5) 7:17 PM MDT (8/5)
Length of Visible Light 15h 22m
Length of Day
14h 19m
Waning Crescent, 1% of the Moon is Illuminated
Aug 5
Waning Crescent
Aug 6
New
Aug 14
First Quarter
Aug 20
Full
Aug 28
Last Quarter

Hourly Weather History & Observations

Time (MDT) Temp. Dew Point Humidity Pressure Visibility Wind Dir Wind Speed Gust Speed Precip Events Conditions
12:53 AM 69.1 °F 48.9 °F 49% 29.85 in 10.0 mi South 4.6 mph - N/A   Clear
1:53 AM 66.9 °F 48.9 °F 52% 29.86 in 10.0 mi WNW 8.1 mph - N/A   Clear
2:53 AM 62.1 °F 50.0 °F 65% 29.88 in 10.0 mi NE 8.1 mph - N/A   Clear
3:53 AM 63.0 °F 55.9 °F 78% 29.91 in 10.0 mi East 5.8 mph - N/A   Clear
4:53 AM 64.0 °F 59.0 °F 84% 29.92 in 10.0 mi North 4.6 mph - N/A   Mostly Cloudy
5:29 AM 64.4 °F 59.0 °F 83% 30.13 in 10.0 mi Calm Calm - N/A   Scattered Clouds
5:53 AM 62.1 °F 57.9 °F 86% 29.94 in 10.0 mi Calm Calm - N/A   Clear
6:53 AM 62.1 °F 57.9 °F 86% 29.96 in 10.0 mi WNW 5.8 mph - N/A   Clear
7:53 AM 66.9 °F 57.9 °F 73% 29.96 in 10.0 mi NW 4.6 mph - N/A   Clear
8:53 AM 70.0 °F 55.0 °F 59% 29.98 in 10.0 mi Calm Calm - N/A   Clear
9:53 AM 75.0 °F 55.0 °F 50% 29.96 in 10.0 mi Variable 5.8 mph - N/A   Clear
10:53 AM 78.1 °F 54.0 °F 43% 29.96 in 10.0 mi East 8.1 mph - N/A   Clear
11:53 AM 81.0 °F 51.1 °F 35% 29.94 in 10.0 mi Variable 5.8 mph - N/A   Clear
12:53 PM 82.9 °F 52.0 °F 34% 29.91 in 10.0 mi NE 4.6 mph - N/A   Clear
1:53 PM 86.0 °F 48.0 °F 27% 29.87 in 10.0 mi ESE 4.6 mph - N/A   Clear
2:53 PM 91.0 °F 37.0 °F 15% 29.85 in 10.0 mi NNW 8.1 mph - N/A   Clear
3:53 PM 93.0 °F 28.0 °F 10% 29.81 in 10.0 mi NNW 8.1 mph - N/A   Clear
4:53 PM 90.0 °F 28.9 °F 11% 29.78 in 10.0 mi Variable 5.8 mph - N/A   Clear
5:53 PM 91.0 °F 32.0 °F 12% 29.77 in 10.0 mi WSW 5.8 mph - N/A   Clear
6:53 PM 86.0 °F 39.9 °F 20% 29.78 in 10.0 mi South 17.3 mph 23.0 mph N/A   Clear
7:53 PM 81.0 °F 48.9 °F 33% 29.77 in 10.0 mi SSE 15.0 mph - N/A   Clear
8:53 PM 79.0 °F 46.9 °F 32% 29.77 in 10.0 mi SSE 11.5 mph - N/A   Clear
9:53 PM 78.1 °F 43.0 °F 29% 29.76 in 10.0 mi South 11.5 mph - N/A   Clear
10:53 PM 77.0 °F 39.9 °F 26% 29.74 in 10.0 mi SW 11.5 mph - N/A   Clear
11:53 PM 73.9 °F 39.9 °F 29% 29.74 in 10.0 mi WSW 6.9 mph - N/A   Clear